Overview Statistics Trail Chart Weather Telemetry Raw packets
 

This is the latest recevied weather packets stored in our database for station/object 4S6DRJ-13. If no packets are shown the sender has not sent any weather packets the latest 10 day(s).

<< 374 375 376 377 378 379 380 >>
Time Temp. Humidity Pressure Rain* Wind** Luminosity Snow
1787900928 31.11° C 73% 1009.5 hPa 0 mm 2.24 m/s, 77° 1136 W/m² -
1787900868 31.11° C 74% 1009.4 hPa 0 mm 2.68 m/s, 182° 337 W/m² -
1787900806 31.67° C 74% 1009.5 hPa 0 mm 0.45 m/s, 228° 1109 W/m² -
1787900745 31.67° C 72% 1009.5 hPa 0 mm 1.34 m/s, 297° 424 W/m² -
1787900684 31.67° C 72% 1009.6 hPa 0 mm 1.79 m/s, 250° 358 W/m² -
1787900623 31.11° C 73% 1009.6 hPa 0 mm 1.79 m/s, 274° 1133 W/m² -
1787900562 31.11° C 73% 1009.5 hPa 0 mm 1.79 m/s, 208° 857 W/m² -
1787900501 31.11° C 73% 1009.6 hPa 0 mm 0.45 m/s, 218° 446 W/m² -
1787900440 31.11° C 73% 1009.6 hPa 0 mm 2.24 m/s, 334° 459 W/m² -
1787900379 31.11° C 73% 1009.5 hPa 0 mm 0.89 m/s, 184° 1152 W/m² -
1787900318 31.11° C 73% 1009.6 hPa 0 mm 2.68 m/s, 297° 504 W/m² -
1787900257 30.56° C 72% 1009.9 hPa 0 mm 2.24 m/s, 255° 1136 W/m² -
1787900196 30.56° C 74% 1009.8 hPa 0 mm 1.79 m/s, 345° 1136 W/m² -
1787900135 30.56° C 74% 1009.7 hPa 0 mm 1.79 m/s, 290° 1131 W/m² -
1787900074 30.56° C 74% 1009.8 hPa 0 mm 2.68 m/s, 199° 1101 W/m² -
1787900013 30.56° C 74% 1009.8 hPa 0 mm 0.89 m/s, 263° 665 W/m² -
1787899952 30.56° C 76% 1009.7 hPa 0 mm 1.34 m/s, 308° 994 W/m² -
1787899891 30.56° C 76% 1009.7 hPa 0 mm 2.24 m/s, 352° 1139 W/m² -
1787899831 30.56° C 75% 1009.8 hPa 0 mm 2.24 m/s, 226° 582 W/m² -
1787899769 30.56° C 75% 1010 hPa 0 mm 4.02 m/s, 212° 1124 W/m² -
1787899708 30.56° C 75% 1009.7 hPa 0 mm 2.68 m/s, 265° 1134 W/m² -
1787899647 30.56° C 77% 1009.8 hPa 0 mm 1.79 m/s, 315° 1132 W/m² -
1787899588 30.56° C 76% 1009.9 hPa 0 mm 0.89 m/s, 252° 1124 W/m² -
1787899525 30.56° C 76% 1010 hPa 0 mm 2.24 m/s, 253° 522 W/m² -
1787899464 30.56° C 76% 1010 hPa 0 mm 2.24 m/s, 271° 590 W/m² -

* Rain latest hour (hover to see other rain measurements)
** Current wind speed in m/s (hover to see current wind gust speed)